• In Russia
  • List of Countries
  • For 7 days
  • Water Temperature
  • Satellite Maps
  • Weather Map
  • Weather Widgets
  • user-avatar
    Login

    Hourly Weather Salzburg

    Today, 6 December, Tuesday

    Time Temperature Precipitation Wind Pressure Humidity
    00:00 -9°C° 0 mm 1 mps 627 mmHg 59%
    01:00 -11°C° 0 mm 1 mps 626 mmHg 61%
    02:00 -10°C° 0 mm 1 mps 627 mmHg 61%
    03:00 -10°C° 0 mm 1 mps 627 mmHg 61%
    04:00 -9°C° 0 mm 1 mps 627 mmHg 61%
    05:00 -9°C° 0 mm 1 mps 627 mmHg 62%
    06:00 -9°C° 0 mm 1 mps 627 mmHg 63%
    07:00 -10°C° 0 mm 1 mps 628 mmHg 66%
    08:00 -8°C° 0 mm 1 mps 629 mmHg 65%
    09:00 -6°C° 0 mm 1 mps 630 mmHg 63%
    10:00 -3°C° 0 mm 1 mps 631 mmHg 62%
    11:00 -2°C° 0 mm 1 mps 631 mmHg 63%
    12:00 -1°C° 0 mm 1 mps 631 mmHg 64%
    13:00 0°C° 0 mm 1 mps 632 mmHg 65%
    14:00 -2°C° 0 mm 1 mps 631 mmHg 70%
    15:00 -4°C° 0 mm 1 mps 630 mmHg 74%
    16:00 -8°C° 0 mm 1 mps 629 mmHg 78%
    17:00 -8°C° 0 mm 1 mps 629 mmHg 77%
    18:00 -9°C° 0 mm 1 mps 629 mmHg 76%
    19:00 -9°C° 0 mm 1 mps 629 mmHg 75%
    20:00 -10°C° 0 mm 1 mps 629 mmHg 75%
    21:00 -10°C° 0 mm 1 mps 629 mmHg 75%
    22:00 -10°C° 0 mm 1 mps 629 mmHg 74%
    23:00 -10°C° 0 mm 1 mps 629 mmHg 74%

    Tomorrow, 7 December, Wednesday

    Time Temperature Precipitation Wind Pressure Humidity
    00:00 -10°C° 0 mm 1 mps 629 mmHg 74%
    01:00 -10°C° 0 mm 1 mps 630 mmHg 74%
    02:00 -10°C° 0 mm 1 mps 630 mmHg 73%
    03:00 -10°C° 0 mm 1 mps 630 mmHg 72%
    04:00 -9°C° 0 mm 1 mps 630 mmHg 71%
    05:00 -10°C° 0 mm 1 mps 630 mmHg 71%
    06:00 -10°C° 0 mm 1 mps 629 mmHg 70%
    07:00 -10°C° 0 mm 1 mps 629 mmHg 70%
    08:00 -8°C° 0 mm 1 mps 631 mmHg 67%
    09:00 -4°C° 0 mm 1 mps 632 mmHg 64%
    10:00 -2°C° 0 mm 0 mps 634 mmHg 62%
    11:00 -1°C° 0 mm 0 mps 634 mmHg 63%
    12:00 0°C° 0 mm 0 mps 634 mmHg 64%
    13:00 +1°C° 0 mm 0 mps 634 mmHg 64%
    14:00 -2°C° 0 mm 0 mps 633 mmHg 68%
    15:00 -5°C° 0 mm 0 mps 632 mmHg 71%
    16:00 -8°C° 0 mm 0 mps 630 mmHg 74%
    17:00 -9°C° 0 mm 0 mps 630 mmHg 72%
    18:00 -9°C° 0 mm 0 mps 630 mmHg 70%
    19:00 -9°C° 0 mm 1 mps 630 mmHg 68%
    20:00 -9°C° 0 mm 1 mps 630 mmHg 68%
    21:00 -9°C° 0 mm 1 mps 630 mmHg 67%
    22:00 -9°C° 0 mm 1 mps 630 mmHg 67%
    23:00 -9°C° 0 mm 1 mps 630 mmHg 66%

    Day after tomorrow, 8 December, Thursday

    Time Temperature Precipitation Wind Pressure Humidity
    00:00 -9°C° 0 mm 1 mps 630 mmHg 66%
    01:00 -9°C° 0 mm 1 mps 630 mmHg 65%
    02:00 -9°C° 0 mm 1 mps 630 mmHg 64%
    03:00 -8°C° 0 mm 1 mps 630 mmHg 64%
    04:00 -8°C° 0 mm 1 mps 630 mmHg 63%
    05:00 -8°C° 0 mm 1 mps 630 mmHg 61%
    06:00 -7°C° 0 mm 1 mps 630 mmHg 59%
    07:00 -7°C° 0 mm 1 mps 630 mmHg 57%
    08:00 -3°C° 0 mm 1 mps 632 mmHg 57%
    09:00 -1°C° 0 mm 1 mps 633 mmHg 57%
    10:00 +1°C° 0 mm 1 mps 634 mmHg 57%
    11:00 +2°C° 0 mm 1 mps 634 mmHg 58%
    12:00 +2°C° 0 mm 0 mps 634 mmHg 59%
    13:00 +3°C° 0 mm 0 mps 634 mmHg 60%
    14:00 0°C° 0 mm 0 mps 633 mmHg 60%
    15:00 -3°C° 0 mm 0 mps 631 mmHg 61%
    16:00 -5°C° 0 mm 0 mps 630 mmHg 62%
    17:00 -6°C° 0 mm 0 mps 630 mmHg 60%
    18:00 -6°C° 0 mm 1 mps 630 mmHg 59%
    19:00 -6°C° 0 mm 1 mps 630 mmHg 58%
    20:00 -6°C° 0 mm 1 mps 630 mmHg 57%
    21:00 -6°C° 0 mm 1 mps 630 mmHg 55%
    22:00 -4°C° 0 mm 1 mps 631 mmHg 54%
    23:00 -4°C° 0 mm 1 mps 631 mmHg 54%

    9 December, Friday

    Time Temperature Precipitation Wind Pressure Humidity
    00:00 -4°C° 0 mm 1 mps 631 mmHg 54%
    01:00 -4°C° 0 mm 1 mps 630 mmHg 53%
    02:00 -4°C° 0 mm 1 mps 631 mmHg 53%
    03:00 -3°C° 0 mm 1 mps 631 mmHg 53%
    04:00 -2°C° 0 mm 1 mps 632 mmHg 52%
    05:00 -3°C° 0 mm 1 mps 631 mmHg 51%
    06:00 -4°C° 0 mm 1 mps 631 mmHg 49%
    07:00 -6°C° 0 mm 1 mps 631 mmHg 48%
    08:00 -3°C° 0 mm 1 mps 632 mmHg 49%
    09:00 -1°C° 0 mm 1 mps 632 mmHg 50%
    10:00 +1°C° 0 mm 1 mps 633 mmHg 51%
    11:00 +2°C° 0 mm 1 mps 633 mmHg 53%
    12:00 +3°C° 0 mm 1 mps 633 mmHg 56%
    13:00 +4°C° 0 mm 1 mps 633 mmHg 59%
    14:00 +1°C° 0 mm 1 mps 632 mmHg 57%
    15:00 -1°C° 0 mm 1 mps 631 mmHg 56%
    16:00 -4°C° 0 mm 1 mps 630 mmHg 55%
    17:00 -4°C° 0 mm 1 mps 630 mmHg 54%
    18:00 -4°C° 0 mm 1 mps 629 mmHg 53%
    19:00 -4°C° 0 mm 1 mps 629 mmHg 53%
    20:00 -6°C° 0 mm 1 mps 629 mmHg 53%
    21:00 -6°C° 0 mm 1 mps 629 mmHg 53%
    22:00 -6°C° 0 mm 1 mps 629 mmHg 53%
    23:00 -6°C° 0 mm 1 mps 628 mmHg 56%

    10 December, Saturday

    Time Temperature Precipitation Wind Pressure Humidity
    00:00 -6°C° 0 mm 1 mps 628 mmHg 59%
    01:00 -6°C° 0 mm 1 mps 628 mmHg 61%
    02:00 -6°C° 0 mm 1 mps 628 mmHg 63%
    03:00 -6°C° 0 mm 1 mps 627 mmHg 64%
    04:00 -6°C° 0 mm 1 mps 627 mmHg 66%
    05:00 -7°C° 0 mm 1 mps 627 mmHg 67%
    06:00 -7°C° 0 mm 1 mps 627 mmHg 68%
    07:00 -7°C° 0 mm 1 mps 627 mmHg 69%
    08:00 -3°C° 0 mm 1 mps 628 mmHg 66%
    09:00 -1°C° 0 mm 1 mps 629 mmHg 63%
    10:00 +2°C° 0 mm 1 mps 630 mmHg 61%
    11:00 +1°C° 0 mm 0 mps 630 mmHg 62%
    12:00 +2°C° 0 mm 0 mps 630 mmHg 63%
    13:00 +3°C° 0 mm 0 mps 630 mmHg 64%
    14:00 +1°C° 0 mm 0 mps 629 mmHg 67%
    15:00 -2°C° 0 mm 0 mps 627 mmHg 70%
    16:00 -5°C° 0 mm 0 mps 626 mmHg 73%
    17:00 -5°C° 0 mm 0 mps 626 mmHg 73%
    18:00 -6°C° 0 mm 0 mps 626 mmHg 73%
    19:00 -6°C° 0 mm 1 mps 625 mmHg 73%
    20:00 -6°C° 0 mm 1 mps 625 mmHg 71%
    21:00 -4°C° 0 mm 1 mps 625 mmHg 70%
    22:00 -4°C° 0 mm 1 mps 625 mmHg 68%
    23:00 -4°C° 0 mm 1 mps 625 mmHg 68%

    11 December, Sunday

    Time Temperature Precipitation Wind Pressure Humidity
    00:00 -4°C° 0 mm 1 mps 625 mmHg 68%
    01:00 -6°C° 0 mm 1 mps 624 mmHg 68%
    02:00 -6°C° 0 mm 1 mps 624 mmHg 67%
    03:00 -6°C° 0 mm 1 mps 624 mmHg 67%
    04:00 -6°C° 0 mm 1 mps 623 mmHg 67%
    05:00 -6°C° 0 mm 1 mps 623 mmHg 65%
    06:00 -6°C° 0 mm 1 mps 623 mmHg 63%
    07:00 -6°C° 0 mm 1 mps 623 mmHg 62%
    08:00 -3°C° 0 mm 1 mps 623 mmHg 61%
    09:00 -1°C° 0 mm 1 mps 624 mmHg 60%
    10:00 +1°C° 0 mm 1 mps 625 mmHg 59%
    11:00 +2°C° 0 mm 1 mps 625 mmHg 62%
    12:00 +2°C° 0 mm 1 mps 625 mmHg 64%
    13:00 +3°C° 0 mm 1 mps 625 mmHg 67%
    14:00 +2°C° 0.2 mm 1 mps 624 mmHg 71%
    15:00 -1°C° 0.2 mm 2 mps 624 mmHg 75%
    16:00 -2°C° 0.2 mm 2 mps 624 mmHg 80%
    17:00 -3°C° 0.4 mm 2 mps 624 mmHg 84%
    18:00 -3°C° 0.4 mm 2 mps 624 mmHg 88%
    19:00 -3°C° 0.4 mm 2 mps 624 mmHg 92%
    20:00 -3°C° 0.4 mm 2 mps 625 mmHg 93%
    21:00 -3°C° 0.4 mm 2 mps 625 mmHg 95%
    22:00 -4°C° 0.4 mm 2 mps 625 mmHg 97%
    23:00 -4°C° 0.4 mm 2 mps 625 mmHg 97%
    Show more